Wind_Speed
4 7 5 3 6 4 10 8 6 3 5 4 4 6 5 6 8 12 13 14 13 12 12 14 15 16 18 13 12 10 8 9 12 13 17 20 27 38 39 36 34 35 35 37
4 7 9 12 13 14 12 11 8 11 16 3 2 4 5 5 7 12 15 15 14 14 13 13 15 18 15 10 7 9 4 4 5 6 10 14 19 21 28 31 33 37 38 40
4 0 2 4 12 13 10 10 9 10 11 3 4 7 6 7 9 12 13 14 16 15 14 14 18 23 17 11 10 5 4 7 6 6 10 13 14 17 12 18 31 32 29 33
3 1 3 5 2 4 9 5 5 4 4 3 6 7 8 7 11 13 11 11 16 18 17 21 24 25 21 12 10 8 6 8 7 8 8 11 16 18 22 22 19 19 23 23
2 3 5 4 4 3 4 5 6 5 3 6 2 6 7 8 6 10 10 11 16 23 27 25 22 25 18 9 6 6 8 10 13 14 14 10 9 16 18 23 25 23 22 19
1 2 3 1 1 3 1 4 5 5 6 5 3 4 9 10 6 9 11 13 16 26 28 26 26 24 14 9 11 11 6 12 15 17 18 15 11 12 13 18 21 21 22 17
3 4 6 4 5 3 4 5 4 5 7 6 4 8 10 12 15 12 12 17 27 27 24 29 26 20 15 14 14 15 15 14 18 17 19 18 16 12 15 18 18 20 19 16
2 3 6 5 3 5 6 3 5 5 7 8 9 12 12 17 15 14 16 19 26 19 19 32 27 22 17 11 10 22 24 19 20 21 20 20 22 18 18 21 20 17 19 16
7 5 5 5 4 5 2 4 4 4 8 9 12 12 14 15 15 14 17 20 30 21 21 26 23 26 17 20 24 24 22 20 23 23 23 21 21 23 21 22 22 16 16 15
2 1 4 3 5 3 3 3 7 9 11 8 13 12 15 13 11 12 16 20 28 21 16 11 22 26 23 27 29 26 24 22 22 24 24 22 19 18 17 14 15 15 15 14
3 4 5 3 1 5 13 13 13 13 9 11 10 13 12 10 10 13 16 19 21 14 5 8 20 19 22 25 35 24 24 22 20 20 23 24 17 15 16 12 13 16 13 13
4 1 2 5 6 11 11 13 14 15 16 14 11 15 12 8 9 13 17 16 9 8 6 13 21 19 22 24 28 29 22 19 19 21 22 22 22 21 16 15 14 13 12 11
2 4 4 8 9 5 12 15 17 16 15 15 15 11 10 5 10 15 14 6 4 4 10 19 20 20 24 23 24 25 22 20 21 21 20 18 18 16 13 17 18 16 15 13
4 5 7 4 9 12 13 13 16 14 13 12 14 10 4 6 11 12 7 2 5 8 12 18 17 18 22 25 28 29 26 22 21 20 21 18 18 14 13 12 9 11 10 7
3 6 8 9 11 9 11 12 16 15 16 15 10 0 4 9 11 5 2 11 15 15 14 17 17 17 18 22 26 25 25 22 21 19 18 17 16 15 14 14 14 11 7 6
5 8 7 7 10 12 13 14 14 15 16 16 8 6 5 6 9 7 10 12 10 9 12 15 17 17 21 24 27 29 26 25 25 23 21 19 17 15 14 13 11 8 6 5
3 8 9 10 11 13 13 11 11 13 14 12 10 5 5 5 9 6 15 19 17 15 14 15 18 23 26 27 29 27 26 23 21 19 17 14 13 11 9 8 5 5 7 8
2 3 5 7 9 10 12 12 11 10 10 12 8 6 4 5 5 6 10 16 19 19 18 15 17 20 23 23 25 25 23 22 19 18 15 13 11 10 9 8 8 8 10 12
2 4 4 6 7 8 9 10 10 11 11 12 5 4 5 5 7 8 11 14 10 6 9 12 14 15 14 16 19 20 20 18 17 15 13 10 8 8 8 9 10 9 9 11
2 3 4 3 4 6 8 11 13 10 11 10 8 5 5 6 6 10 14 10 9 6 6 9 11 13 13 12 12 13 13 13 13 12 11 9 7 6 6 6 5 4 5 6
3 4 3 3 3 6 9 11 11 6 11 11 6 4 4 8 10 10 8 5 6 7 9 10 10 10 8 6 7 9 10 10 9 8 7 6 6 7 5 4 4 5 6 8
4 4 3 3 4 3 7 9 11 9 9 9 9 8 7 6 9 11 9 8 6 7 9 9 9 8 7 7 8 9 8 7 6 5 4 4 4 4 3 5 8 10 12 12
1 2 3 5 6 3 2 6 8 6 7 8 8 6 6 7 6 3 2 5 6 7 7 5 3 2 3 6 5 4 3 3 3 2 3 3 4 5 6 8 10 11 11 12
2 1 3 3 7 6 5 4 5 5 4 2 4 4 4 4 7 6 7 5 6 7 6 5 4 5 6 7 7 6 5 4 3 1 1 3 4 4 5 7 9 9 10 10
5 3 2 2 2 2 6 9 8 7 6 4 2 2 0 2 1 5 3 4 5 5 5 3 3 3 4 5 5 5 5 4 3 1 0 1 2 3 2 2 2 3 3 2
5 3 4 3 1 3 5 7 4 7 9 6 8 6 4 3 5 5 5 5 5 6 5 4 3 4 6 7 6 5 4 6 6 5 5 4 4 3 3 3 4 5 5 6
9 10 7 5 2 4 5 6 6 6 9 9 9 10 9 10 8 6 4 5 4 5 5 3 3 5 5 6 5 5 6 7 6 6 6 4 3 2 2 4 5 7 6 6
Wind_Direction
263 247 246 270 302 252 216 230 214 217 226 282 305 306 320 314 335 333 322 310 305 306 315 317 314 304 292 288 294 299 292 244 215 199 206 199 193 194 195 191 192 185 182 185
269 245 237 243 241 237 240 243 246 270 281 97 241 290 316 317 325 314 305 309 306 301 310 314 321 311 287 267 267 278 276 270 247 171 183 188 193 197 191 187 178 179 185 180
261 97 200 281 236 238 242 235 219 236 251 5 325 316 300 312 294 293 300 303 303 299 305 310 314 315 290 247 243 215 190 179 214 200 182 186 197 183 158 157 173 174 175 175
270 103 256 250 268 224 236 242 203 250 239 220 244 262 283 263 277 292 286 292 306 301 298 301 306 304 294 233 212 192 180 140 134 133 124 137 161 160 159 161 151 141 153 162
179 221 288 274 234 233 194 262 198 216 264 270 314 325 294 254 237 240 261 282 297 295 293 294 292 294 275 200 154 141 137 117 116 125 115 109 130 147 152 149 156 160 150 160
78 221 256 327 75 90 55 287 188 192 248 267 64 321 278 274 254 269 279 289 296 294 288 283 282 284 236 181 148 138 148 140 131 125 123 121 114 114 127 142 132 136 130 135
198 235 283 225 159 127 96 244 211 201 239 254 208 219 266 290 291 277 275 289 295 295 285 277 268 264 223 180 165 151 144 144 130 127 125 126 118 115 115 110 109 111 117 127
179 218 276 169 68 165 218 251 233 227 244 258 254 270 269 281 288 288 290 299 294 293 274 272 257 239 208 174 181 154 152 155 138 136 132 132 127 126 121 123 119 124 120 120
180 213 233 228 216 245 8 260 291 262 270 266 275 271 279 283 288 291 301 306 304 293 279 264 229 224 189 166 164 144 138 134 135 137 133 135 133 132 132 135 132 130 128 133
128 234 240 270 272 273 298 273 286 281 282 286 281 294 293 288 290 302 309 311 306 294 270 234 212 206 170 151 149 142 129 129 132 127 127 128 131 132 131 133 132 136 137 136
268 299 317 349 341 356 332 326 317 304 277 274 280 289 296 285 294 305 306 314 304 299 185 126 107 113 130 144 148 131 129 128 126 122 116 113 112 123 126 120 137 131 133 141
228 48 286 275 328 316 312 312 299 292 294 289 282 284 286 274 301 300 305 307 314 322 114 110 108 102 108 129 133 129 121 122 122 117 109 109 106 92 98 106 109 113 119 138
275 327 270 276 280 275 315 310 306 298 287 281 280 277 267 291 297 309 308 289 280 30 71 91 88 92 105 116 123 115 115 118 117 116 117 120 119 116 113 100 99 99 104 110
273 314 294 307 312 301 316 321 324 322 319 294 273 274 231 285 309 303 285 151 94 78 75 75 89 86 112 118 112 111 113 117 115 120 123 119 113 120 123 109 98 86 81 79
357 322 309 304 307 329 333 330 328 330 334 328 312 263 16 320 315 319 119 104 89 77 74 82 77 79 107 119 119 112 107 110 119 114 116 114 118 115 109 99 90 89 85 67
328 317 318 324 336 329 331 331 332 330 336 339 326 39 26 353 350 41 61 77 81 78 78 89 96 110 116 115 112 109 111 114 112 110 110 116 122 118 113 100 97 90 69 47
340 333 343 330 328 330 332 330 325 325 329 332 339 18 339 39 19 33 62 66 67 72 82 94 106 119 116 113 108 109 114 115 114 115 116 121 118 109 113 123 146 166 201 201
310 327 336 333 333 332 333 333 327 320 325 316 312 332 331 72 74 26 77 86 79 66 78 97 113 112 112 114 115 118 121 126 131 133 130 132 138 149 160 179 188 198 206 208
335 331 332 329 331 330 322 322 322 317 324 320 328 28 22 45 79 71 74 78 67 66 51 89 111 122 124 128 134 137 137 140 142 146 148 148 153 168 173 187 196 200 196 207
329 330 337 318 334 331 326 335 327 333 347 352 13 28 66 55 66 82 79 68 69 83 93 108 109 105 112 124 137 147 153 157 159 158 162 168 177 194 211 224 236 246 239 247
344 334 312 318 303 323 335 342 335 349 359 26 39 25 42 79 85 89 78 79 55 81 98 111 111 103 106 127 142 154 156 157 166 168 171 183 206 221 231 256 274 297 289 268
347 330 359 334 319 294 347 350 356 13 23 31 40 50 61 56 77 75 88 100 102 106 104 104 103 104 112 136 142 136 141 140 135 134 150 189 209 245 271 284 278 270 267 266
72 11 342 355 328 313 328 7 354 6 32 25 36 42 60 60 55 50 62 85 121 108 110 124 133 122 172 197 157 151 149 191 220 237 247 279 287 285 287 283 279 276 274 273
145 321 331 5 11 13 25 12 1 355 9 23 34 67 103 97 56 74 113 129 155 141 116 85 100 120 128 132 140 145 149 143 143 183 283 290 288 286 291 284 280 283 281 280
190 215 287 357 28 8 6 353 350 334 325 321 343 356 129 178 182 158 128 114 135 130 119 109 132 127 130 127 142 130 122 123 123 148 349 85 65 51 16 354 2 354 346 330
184 185 178 137 79 19 18 4 349 343 341 326 311 275 252 200 144 138 126 140 153 142 144 136 125 128 130 128 131 126 126 118 106 85 67 48 44 37 32 24 7 356 338 323
204 188 175 165 152 38 11 8 356 336 326 307 297 298 234 200 182 165 146 160 159 148 147 141 129 132 130 133 132 126 114 94 85 81 71 65 45 296 356 354 350 0 353 344
Height
668 668 673 670 671 666 670 666 677 664 660 651 652 664 662 662 655 650 649 648 643 643 640 636 631 624 622 618 616 613 610 609 607 604 608 608 608 610 613 619 627 630 637 643
674 667 669 670 667 671 667 665 655 656 655 657 663 662 660 661 656 652 650 648 645 642 639 637 631 624 619 616 612 609 606 608 612 604 607 607 607 613 612 616 621 626 630 635
688 669 671 688 665 658 654 648 651 660 650 664 662 662 658 658 656 654 652 649 644 639 635 632 627 622 617 613 611 607 607 607 611 612 610 605 610 612 617 621 621 622 626 632
685 677 710 657 657 654 653 649 654 656 659 662 664 660 659 659 654 652 649 646 641 636 629 626 624 618 613 611 609 607 610 607 608 610 609 607 615 615 618 621 623 625 634 641
709 680 665 656 658 658 654 650 654 655 657 658 659 661 652 650 649 649 646 643 639 634 626 622 620 615 611 609 607 607 609 608 605 606 609 614 622 621 622 621 627 633 634 645
716 696 692 659 659 658 655 661 654 656 656 656 662 669 652 644 645 644 642 638 634 627 620 617 613 613 606 606 602 605 609 607 606 608 611 620 624 625 627 630 630 634 637 647
693 690 681 668 661 657 676 668 653 654 655 657 662 656 641 637 638 638 635 629 624 619 613 607 608 608 601 601 600 604 607 611 606 611 616 622 625 631 631 632 635 638 646 654
682 690 695 660 663 665 662 651 650 653 653 654 651 646 644 634 632 630 627 616 611 605 599 594 597 598 594 596 601 599 602 611 611 614 618 624 626 633 634 638 643 653 653 661
682 687 665 661 661 654 655 657 654 652 650 649 644 640 636 630 625 621 616 606 600 594 585 577 582 584 584 589 596 598 605 612 614 618 620 626 632 634 641 642 649 656 658 666
663 649 655 653 655 654 655 654 653 650 646 644 641 634 629 625 621 616 608 600 592 581 568 566 569 574 577 584 589 597 605 614 621 621 625 629 637 641 646 651 651 652 657 663
660 654 654 651 653 657 653 650 648 644 643 638 636 630 626 622 617 610 602 593 585 570 564 565 564 571 576 581 586 598 607 614 622 625 627 632 643 647 651 652 654 655 661 665
671 660 662 660 659 657 654 651 646 641 634 631 630 625 621 617 612 605 597 587 585 576 567 568 570 576 579 584 588 597 607 615 621 626 630 638 645 651 656 658 658 659 665 672
662 662 663 661 658 655 652 648 641 636 630 625 619 618 615 613 607 601 593 585 586 581 575 570 574 580 583 589 593 597 607 616 623 628 634 640 646 649 658 663 661 664 666 674
661 659 656 655 654 651 647 644 640 635 627 621 614 611 611 608 603 597 589 589 586 583 577 579 584 587 592 594 597 605 615 623 628 635 640 644 644 653 658 657 662 667 673 676
659 658 658 657 651 649 646 644 639 633 628 618 610 610 610 607 603 596 592 590 589 590 589 587 591 595 598 600 605 612 618 626 632 636 638 643 649 655 659 662 665 670 675 677
658 657 657 657 653 651 648 644 640 634 629 622 614 612 613 610 605 599 597 596 595 599 601 600 601 605 606 609 611 614 622 628 632 638 644 651 656 661 664 665 667 669 669 671
659 656 657 655 653 650 648 646 642 637 631 625 620 617 615 609 608 606 604 605 606 609 609 610 611 613 614 615 615 621 629 635 640 644 649 654 656 660 664 667 670 671 676 681
658 658 658 657 654 651 648 645 641 636 632 627 623 620 618 613 613 614 613 614 615 616 616 618 618 619 621 624 627 631 636 642 647 651 654 658 661 665 667 670 673 676 680 683
657 657 657 656 654 652 649 645 640 636 632 627 624 622 620 619 617 619 619 620 622 624 626 626 626 627 630 632 635 638 642 646 650 654 657 661 663 667 668 672 675 676 677 680
656 656 656 655 654 652 649 646 641 636 633 629 626 625 626 626 625 624 624 627 631 632 631 631 632 633 635 637 639 643 647 649 652 655 658 661 664 667 668 670 671 673 673 673
656 656 655 655 653 652 649 646 642 639 636 634 632 631 631 632 631 631 631 632 635 634 634 635 636 636 638 642 643 647 648 651 653 656 658 659 663 666 667 667 667 669 671 672
656 655 654 654 652 650 649 646 644 641 639 637 637 635 634 634 634 635 637 637 638 637 638 638 639 640 643 646 648 648 650 652 653 655 657 661 663 664 662 664 666 668 669 670
656 656 654 654 652 649 648 647 646 644 642 640 639 639 638 638 638 637 638 640 641 641 642 644 645 645 646 648 649 650 652 654 656 657 659 660 660 661 661 663 664 666 666 666
655 655 653 652 652 650 648 647 647 646 644 643 642 641 641 641 642 641 641 642 645 645 645 645 645 647 647 649 651 651 652 654 655 657 658 659 659 660 660 661 662 662 661 661
653 653 652 651 651 651 650 649 647 646 645 644 643 643 643 642 642 643 643 643 643 643 645 646 648 648 648 649 651 651 653 654 655 657 657 658 659 658 660 660 660 659 659 658
649 650 650 651 651 651 650 649 648 647 646 644 643 642 643 643 643 643 644 645 646 646 648 649 649 649 650 651 652 653 654 655 655 656 656 658 659 659 660 660 659 658 656 657
644 645 647 648 650 649 649 649 648 647 646 645 643 641 641 642 643 643 644 645 646 647 648 648 649 650 651 653 654 655 654 654 654 655 658 660 661 662 660 659 659 656 655 655